Location: Berg
(47.2344°N, 9.5296°E)
Time: 03:59:42
(UTC+00:00)

STRAND 1 - Visible Passes

Search period start: 06 December 2021 00:00
Search period end: 16 December 2021 00:00
Orbit: 767 x 781 km, 98.4° (Epoch: 05 December)

Date Brightness Start Highest point End Pass type
(mag) Time Alt. Az. Time Alt. Az. Time Alt. Az.
06 Dec ? 04:44:03 10° SE 04:48:41 36° ENE 04:53:19 10° N visible
07 Dec ? 04:11:16 10° ESE 04:14:54 20° ENE 04:18:33 10° NNE visible
07 Dec ? 05:48:31 10° S 05:53:36 66° WSW 05:58:42 10° NNW visible
08 Dec ? 03:39:56 10° ENE 03:41:17 11° NE 03:42:39 10° NE visible
08 Dec ? 05:14:26 10° SSE 05:19:30 64° ENE 05:24:34 10° N visible
09 Dec ? 04:41:00 10° SE 04:45:34 34° ENE 04:50:09 10° N visible
09 Dec ? 06:20:02 10° SSW 06:24:43 36° W 06:29:25 10° NNW visible
10 Dec ? 04:08:17 10° ESE 04:11:49 19° ENE 04:15:19 10° NNE visible
10 Dec ? 05:45:22 10° S 05:50:28 70° WSW 05:55:35 10° NNW visible
11 Dec ? 03:37:22 10° ENE 03:38:13 10° NE 03:39:03 10° NE visible
11 Dec ? 05:11:21 10° SSE 05:16:23 61° ENE 05:21:25 10° N visible
12 Dec ? 04:37:58 10° SE 04:42:27 32° ENE 04:46:58 10° N visible
12 Dec ? 06:16:50 10° SSW 06:21:33 38° W 06:26:19 10° NNW visible
13 Dec ? 04:05:20 10° E 04:08:42 18° ENE 04:12:05 10° NNE visible
13 Dec ? 05:42:13 10° S 05:47:19 75° WSW 05:52:27 10° NNW visible
14 Dec ? 05:08:15 10° SSE 05:13:15 57° ENE 05:18:16 10° N visible
15 Dec ? 04:34:56 10° SE 04:39:21 30° ENE 04:43:46 10° N visible
15 Dec ? 06:13:37 10° SSW 06:18:24 40° W 06:23:13 10° NNW visible
15 Dec ? 18:30:06 11° S 18:30:06 11° S 18:30:17 10° S visible
